| time (UTC) | temp F | wind direction | speed knots | gust knots | rain 1hr in | rain 24hr in | rain mn in | humidity % | barometer mb |
| 20260505102020 | 42 | 150 | 0.0 | 1.7 | 0.00 | 0.00 | 0.00 | 88 | 1011.5 |
| 20260505101541 | 42 | 0 | 0.0 | 0.9 | 0.00 | 0.00 | 0.00 | 88 | 1011.4 |
| 20260505101016 | 43 | 0 | 0.0 | 0.9 | 0.00 | 0.00 | 0.00 | 87 | 1011.5 |
| 20260505100517 | 43 | 0 | 0.0 | 0.9 | 0.00 | 0.00 | 0.00 | 88 | 1011.4 |
| 20260505100033 | 43 | 150 | 0.0 | 1.7 | 0.00 | 0.00 | 0.00 | 88 | 1011.4 |
| 20260505095517 | 43 | 0 | 0.0 | 1.7 | 0.00 | 0.00 | 0.00 | 88 | 1011.3 |
| 20260505095016 | 43 | 150 | 0.9 | 2.6 | 0.00 | 0.00 | 0.00 | 86 | 1011.3 |
| 20260505094532 | 44 | 0 | 0.0 | 2.6 | 0.00 | 0.00 | 0.00 | 87 | 1011.2 |
| 20260505094017 | 44 | 150 | 0.9 | 2.6 | 0.00 | 0.00 | 0.00 | 88 | 1011.3 |
| 20260505093519 | 43 | 150 | 0.9 | 2.6 | 0.00 | 0.00 | 0.00 | 87 | 1011.2 |
| 20260505093031 | 44 | 150 | 1.7 | 2.6 | 0.00 | 0.00 | 0.00 | 86 | 1011.2 |
| 20260505092516 | 44 | 132 | 0.9 | 2.6 | 0.00 | 0.00 | 0.00 | 85 | 1011.1 |
| 20260505092018 | 45 | 175 | 0.0 | 0.9 | 0.00 | 0.00 | 0.00 | 85 | 1011.2 |
| 20260505091537 | 45 | 0 | 0.0 | 4.3 | 0.00 | 0.00 | 0.00 | 85 | 1011.2 |
| 20260505091015 | 45 | 0 | 0.9 | 4.3 | 0.00 | 0.00 | 0.00 | 87 | 1011.1 |
| 20260505090516 | 44 | 167 | 0.9 | 3.5 | 0.00 | 0.00 | 0.00 | 86 | 1011.0 |
| 20260505090036 | 45 | 0 | 0.0 | 2.6 | 0.00 | 0.00 | 0.00 | 84 | 1011.0 |
| 20260505085517 | 45 | 167 | 0.9 | 3.5 | 0.00 | 0.00 | 0.00 | 83 | 1010.9 |
| 20260505085018 | 46 | 167 | 1.7 | 3.5 | 0.00 | 0.00 | 0.00 | 85 | 1010.8 |
| 20260505084541 | 46 | 167 | 2.6 | 3.5 | 0.00 | 0.00 | 0.00 | 86 | 1010.7 |
| 20260505084015 | 45 | 167 | 1.7 | 5.2 | 0.00 | 0.00 | 0.00 | 86 | 1010.6 |
| 20260505083515 | 45 | 151 | 1.7 | 5.2 | 0.00 | 0.00 | 0.00 | 87 | 1010.6 |
| 20260505083033 | 45 | 159 | 1.7 | 3.5 | 0.00 | 0.00 | 0.00 | 85 | 1010.4 |
| 20260505082516 | 45 | 142 | 0.9 | 3.5 | 0.00 | 0.00 | 0.00 | 84 | 1010.4 |
| 20260505082016 | 46 | 165 | 0.9 | 3.5 | 0.00 | 0.00 | 0.00 | 86 | 1010.4 |
| 20260505081532 | 46 | 0 | 0.0 | 0.9 | 0.00 | 0.00 | 0.00 | 85 | 1010.2 |
| 20260505081017 | 46 | 0 | 0.0 | 0.9 | 0.00 | 0.00 | 0.00 | 82 | 1010.2 |
| 20260505080519 | 47 | 0 | 0.0 | 0.0 | 0.00 | 0.00 | 0.00 | 85 | 1010.2 |
| 20260505080033 | 46 | 0 | 0.0 | 0.9 | 0.00 | 0.00 | 0.00 | 85 | 1010.1 |
| 20260505075516 | 46 | 0 | 0.0 | 0.9 | 0.00 | 0.00 | 0.00 | 85 | 1010.1 |
| 20260505075020 | 46 | 128 | 0.0 | 0.9 | 0.00 | 0.00 | 0.00 | 84 | 1010.0 |
| 20260505074536 | 46 | 0 | 0.0 | 1.7 | 0.00 | 0.00 | 0.00 | 84 | 1010.0 |
| 20260505074016 | 46 | 0 | 0.0 | 1.7 | 0.00 | 0.00 | 0.00 | 82 | 1009.9 |
| 20260505073516 | 47 | 128 | 0.9 | 1.7 | 0.00 | 0.00 | 0.00 | 80 | 1009.9 |
| 20260505073040 | 48 | 0 | 0.0 | 0.9 | 0.00 | 0.00 | 0.00 | 81 | 1009.9 |
| 20260505072517 | 48 | 0 | 0.0 | 3.5 | 0.00 | 0.00 | 0.00 | 82 | 1009.8 |
| 20260505072015 | 48 | 0 | 0.0 | 3.5 | 0.00 | 0.00 | 0.00 | 81 | 1009.8 |
| 20260505071532 | 49 | 0 | 0.0 | 2.6 | 0.00 | 0.00 | 0.00 | 80 | 1009.7 |
| 20260505071019 | 49 | 173 | 0.9 | 2.6 | 0.00 | 0.00 | 0.00 | 81 | 1009.7 |
| 20260505070516 | 49 | 173 | 0.9 | 2.6 | 0.00 | 0.00 | 0.00 | 81 | 1009.7 |
| 20260505070039 | 49 | 173 | 0.9 | 2.6 | 0.00 | 0.00 | 0.00 | 82 | 1009.7 |
| 20260505065517 | 49 | 173 | 0.0 | 2.6 | 0.00 | 0.00 | 0.00 | 81 | 1009.7 |
| 20260505065017 | 49 | 173 | 0.9 | 2.6 | 0.00 | 0.00 | 0.00 | 81 | 1009.6 |
| 20260505064533 | 49 | 173 | 0.9 | 2.6 | 0.00 | 0.00 | 0.00 | 80 | 1009.5 |
| 20260505064016 | 50 | 173 | 0.0 | 2.6 | 0.00 | 0.00 | 0.00 | 81 | 1009.5 |
| 20260505063516 | 50 | 184 | 0.9 | 2.6 | 0.00 | 0.00 | 0.00 | 82 | 1009.5 |
| 20260505063036 | 49 | 207 | 0.0 | 2.6 | 0.00 | 0.00 | 0.00 | 81 | 1009.5 |
| 20260505062516 | 49 | 165 | 0.0 | 1.7 | 0.00 | 0.00 | 0.00 | 80 | 1009.5 |
| 20260505062015 | 50 | 165 | 0.0 | 0.9 | 0.00 | 0.00 | 0.00 | 81 | 1009.3 |
| 20260505061540 | 50 | 0 | 0.0 | 0.9 | 0.00 | 0.00 | 0.00 | 79 | 1009.3 |
| 20260505061017 | 51 | 0 | 0.0 | 2.6 | 0.00 | 0.00 | 0.00 | 77 | 1009.3 |
| 20260505060521 | 52 | 0 | 0.0 | 2.6 | 0.00 | 0.00 | 0.00 | 77 | 1009.2 |
| 20260505060036 | 52 | 166 | 0.9 | 3.5 | 0.00 | 0.00 | 0.00 | 76 | 1009.4 |
| 20260505055516 | 52 | 0 | 0.9 | 3.5 | 0.00 | 0.00 | 0.00 | 77 | 1009.3 |
| 20260505055015 | 52 | 110 | 0.0 | 2.6 | 0.00 | 0.00 | 0.00 | 79 | 1009.2 |
| 20260505054538 | 51 | 110 | 0.9 | 2.6 | 0.00 | 0.00 | 0.00 | 79 | 1009.2 |
| 20260505054016 | 52 | 105 | 0.9 | 2.6 | 0.00 | 0.00 | 0.00 | 77 | 1009.2 |
| 20260505053520 | 53 | 105 | 0.9 | 2.6 | 0.00 | 0.00 | 0.00 | 75 | 1009.1 |
| 20260505053034 | 54 | 0 | 0.0 | 3.5 | 0.00 | 0.00 | 0.00 | 75 | 1009.1 |
| 20260505052516 | 55 | 235 | 0.0 | 3.5 | 0.00 | 0.00 | 0.00 | 75 | 1009.0 |
| 20260505052016 | 55 | 178 | 0.9 | 3.5 | 0.00 | 0.00 | 0.00 | 73 | 1009.0 |
| 20260505051532 | 55 | 119 | 0.0 | 1.7 | 0.00 | 0.00 | 0.00 | 72 | 1009.0 |
| 20260505051016 | 55 | 0 | 0.0 | 2.6 | 0.00 | 0.00 | 0.00 | 72 | 1008.9 |
| 20260505050521 | 55 | 119 | 0.0 | 2.6 | 0.00 | 0.00 | 0.00 | 72 | 1008.8 |
| 20260505041549 | 61 | 132 | 0.9 | 3.5 | 0.00 | 0.00 | 0.00 | 58 | 1008.1 |
| 20260505041017 | 61 | 144 | 1.7 | 3.5 | 0.00 | 0.00 | 0.00 | 59 | 1008.0 |
| 20260505040516 | 61 | 115 | 0.0 | 3.5 | 0.00 | 0.00 | 0.00 | 61 | 1007.9 |
| 20260505040048 | 61 | 144 | 0.9 | 2.6 | 0.00 | 0.00 | 0.00 | 61 | 1007.7 |
| 20260505035517 | 61 | 0 | 0.9 | 2.6 | 0.00 | 0.00 | 0.00 | 61 | 1007.7 |
| 20260505035016 | 62 | 144 | 0.9 | 2.6 | 0.00 | 0.00 | 0.00 | 60 | 1007.7 |
| 20260505034535 | 62 | 144 | 0.0 | 2.6 | 0.00 | 0.00 | 0.00 | 60 | 1007.6 |
| 20260505034016 | 63 | 0 | 0.0 | 2.6 | 0.00 | 0.00 | 0.00 | 59 | 1007.6 |
| 20260505033517 | 65 | 144 | 0.9 | 2.6 | 0.00 | 0.00 | 0.00 | 58 | 1007.5 |
| 20260505033034 | 65 | 144 | 0.0 | 2.6 | 0.00 | 0.00 | 0.00 | 55 | 1007.4 |
| 20260505032516 | 66 | 144 | 0.0 | 3.5 | 0.00 | 0.00 | 0.00 | 56 | 1007.3 |
| 20260505032019 | 67 | 0 | 0.9 | 3.5 | 0.00 | 0.00 | 0.00 | 53 | 1007.1 |
| 20260505031541 | 68 | 144 | 1.7 | 3.5 | 0.00 | 0.00 | 0.00 | 50 | 1007.2 |
| 20260505031015 | 68 | 144 | 0.0 | 3.5 | 0.00 | 0.00 | 0.00 | 51 | 1007.0 |
| 20260505030517 | 68 | 168 | 0.9 | 3.5 | 0.00 | 0.00 | 0.00 | 50 | 1007.0 |
| 20260505030035 | 68 | 0 | 0.0 | 2.6 | 0.00 | 0.00 | 0.00 | 52 | 1006.9 |
| 20260505025517 | 69 | 122 | 0.9 | 3.5 | 0.00 | 0.00 | 0.00 | 53 | 1007.0 |
| 20260505025021 | 71 | 90 | 1.7 | 3.5 | 0.00 | 0.00 | 0.00 | 55 | 1006.9 |
| 20260505024533 | 72 | 0 | 0.0 | 0.9 | 0.00 | 0.00 | 0.00 | 44 | 1006.9 |
| 20260505024016 | 73 | 0 | 0.0 | 1.7 | 0.00 | 0.00 | 0.00 | 42 | 1006.8 |
| 20260505023516 | 73 | 186 | 0.0 | 1.7 | 0.00 | 0.00 | 0.00 | 42 | 1006.8 |
| 20260505023031 | 74 | 0 | 0.0 | 1.7 | 0.00 | 0.00 | 0.00 | 40 | 1006.8 |
| 20260505022516 | 75 | 0 | 0.0 | 2.6 | 0.00 | 0.00 | 0.00 | 42 | 1006.8 |
| 20260505022016 | 75 | 0 | 0.9 | 3.5 | 0.00 | 0.00 | 0.00 | 35 | 1006.8 |
| 20260505021536 | 75 | 0 | 1.7 | 5.2 | 0.00 | 0.00 | 0.00 | 35 | 1006.8 |
| 20260505021016 | 75 | 155 | 2.6 | 7.8 | 0.00 | 0.00 | 0.00 | 37 | 1006.8 |
| 20260505020517 | 75 | 138 | 3.5 | 7.8 | 0.00 | 0.00 | 0.00 | 38 | 1006.8 |
| 20260505020035 | 74 | 132 | 5.2 | 7.8 | 0.00 | 0.00 | 0.00 | 36 | 1006.8 |
| 20260505015517 | 74 | 112 | 5.2 | 9.6 | 0.00 | 0.00 | 0.00 | 37 | 1006.7 |
| 20260505015018 | 75 | 108 | 6.1 | 9.6 | 0.00 | 0.00 | 0.00 | 37 | 1006.7 |
| 20260505014548 | 76 | 100 | 5.2 | 10.4 | 0.00 | 0.00 | 0.00 | 35 | 1006.7 |
| 20260505014016 | 77 | 75 | 6.1 | 10.4 | 0.00 | 0.00 | 0.00 | 33 | 1006.7 |
| 20260505013516 | 78 | 73 | 3.5 | 7.8 | 0.00 | 0.00 | 0.00 | 32 | 1006.6 |
| 20260505013033 | 79 | 0 | 0.0 | 3.5 | 0.00 | 0.00 | 0.00 | 39 | 1006.6 |
| 20260505012516 | 79 | 122 | 0.9 | 3.5 | 0.00 | 0.00 | 0.00 | 35 | 1006.5 |
| 20260505012016 | 79 | 101 | 0.0 | 2.6 | 0.00 | 0.00 | 0.00 | 33 | 1006.5 |
| 20260505011539 | 79 | 0 | 0.0 | 2.6 | 0.00 | 0.00 | 0.00 | 32 | 1006.6 |
| 20260505011017 | 79 | 344 | 0.9 | 2.6 | 0.00 | 0.00 | 0.00 | 28 | 1006.6 |
| 20260505010516 | 79 | 0 | 0.0 | 2.6 | 0.00 | 0.00 | 0.00 | 35 | 1006.5 |
| 20260505010036 | 79 | 348 | 0.9 | 1.7 | 0.00 | 0.00 | 0.00 | 43 | 1006.6 |
| 20260505005516 | 79 | 118 | 0.0 | 1.7 | 0.00 | 0.00 | 0.00 | 40 | 1006.6 |
| 20260505005017 | 78 | 118 | 0.9 | 1.7 | 0.00 | 0.00 | 0.00 | 32 | 1006.6 |
| 20260505004538 | 78 | 0 | 0.0 | 1.7 | 0.00 | 0.00 | 0.00 | 32 | 1006.6 |
| 20260505004016 | 78 | 0 | 0.0 | 3.5 | 0.00 | 0.00 | 0.00 | 28 | 1006.6 |
| 20260505003515 | 77 | 118 | 0.9 | 3.5 | 0.00 | 0.00 | 0.00 | 28 | 1006.6 |
| 20260505003040 | 76 | 5 | 0.9 | 3.5 | 0.00 | 0.00 | 0.00 | 36 | 1006.6 |
| 20260505002516 | 76 | 53 | 1.7 | 7.0 | 0.00 | 0.00 | 0.00 | 44 | 1006.7 |
| 20260505002017 | 76 | 92 | 1.7 | 7.0 | 0.00 | 0.00 | 0.00 | 42 | 1006.7 |
| 20260505001532 | 77 | 112 | 4.3 | 9.6 | 0.00 | 0.00 | 0.00 | 37 | 1006.7 |
| 20260505001017 | 77 | 131 | 5.2 | 10.4 | 0.00 | 0.00 | 0.00 | 33 | 1006.7 |
| 20260505000519 | 76 | 98 | 7.0 | 10.4 | 0.00 | 0.00 | 0.00 | 37 | 1006.8 |
| 20260505000048 | 78 | 97 | 7.0 | 10.4 | 0.00 | 0.00 | 0.00 | 32 | 1006.7 |
| 20260504235516 | 79 | 91 | 6.1 | 10.4 | 0.00 | 0.00 | 0.00 | 35 | 1006.7 |
| 20260504235018 | 78 | 93 | 7.8 | 10.4 | 0.00 | 0.00 | 0.00 | 35 | 1006.6 |
| 20260504234542 | 78 | 19 | 3.5 | 9.6 | 0.00 | 0.00 | 0.00 | 36 | 1006.6 |
| 20260504234016 | 78 | 92 | 6.1 | 9.6 | 0.00 | 0.00 | 0.00 | 33 | 1006.6 |
| 20260504233516 | 80 | 113 | 6.1 | 9.6 | 0.00 | 0.00 | 0.00 | 31 | 1006.7 |
| 20260504233048 | 81 | 63 | 2.6 | 7.0 | 0.00 | 0.00 | 0.00 | 31 | 1006.7 |
| 20260504232517 | 81 | 352 | 4.3 | 11.3 | 0.00 | 0.00 | 0.00 | 27 | 1006.7 |
| 20260504232017 | 80 | 335 | 7.8 | 11.3 | 0.00 | 0.00 | 0.00 | 28 | 1006.8 |
| 20260504231534 | 80 | 329 | 5.2 | 8.7 | 0.00 | 0.00 | 0.00 | 34 | 1006.8 |
| 20260504231016 | 81 | 333 | 2.6 | 8.7 | 0.00 | 0.00 | 0.00 | 26 | 1006.8 |
| 20260504230516 | 81 | 360 | 4.3 | 10.4 | 0.00 | 0.00 | 0.00 | 24 | 1006.9 |
| 20260504230035 | 80 | 342 | 4.3 | 10.4 | 0.00 | 0.00 | 0.00 | 25 | 1006.9 |
| 20260504225516 | 80 | 352 | 6.1 | 12.2 | 0.00 | 0.00 | 0.00 | 30 | 1006.9 |
| 20260504225016 | 80 | 352 | 5.2 | 12.2 | 0.00 | 0.00 | 0.00 | 26 | 1006.9 |
| 20260504224540 | 80 | 299 | 7.0 | 14.8 | 0.00 | 0.00 | 0.00 | 24 | 1006.9 |
| 20260504224016 | 80 | 5 | 3.5 | 14.8 | 0.00 | 0.00 | 0.00 | 24 | 1007.0 |
| 20260504223516 | 80 | 35 | 7.8 | 14.8 | 0.00 | 0.00 | 0.00 | 27 | 1007.0 |
| 20260504223053 | 80 | 342 | 6.1 | 12.2 | 0.00 | 0.00 | 0.00 | 24 | 1007.1 |
| 20260504222516 | 80 | 320 | 7.0 | 12.2 | 0.00 | 0.00 | 0.00 | 25 | 1007.1 |
| 20260504222020 | 80 | 306 | 7.8 | 13.0 | 0.00 | 0.00 | 0.00 | 25 | 1007.2 |
| 20260504221538 | 80 | 321 | 8.7 | 13.0 | 0.00 | 0.00 | 0.00 | 29 | 1007.3 |
| 20260504221018 | 80 | 302 | 6.1 | 10.4 | 0.00 | 0.00 | 0.00 | 27 | 1007.2 |
| 20260504220517 | 80 | 310 | 7.0 | 10.4 | 0.00 | 0.00 | 0.00 | 27 | 1007.4 |
| 20260504220034 | 80 | 254 | 6.1 | 9.6 | 0.00 | 0.00 | 0.00 | 27 | 1007.3 |
| 20260504215517 | 80 | 340 | 4.3 | 9.6 | 0.00 | 0.00 | 0.00 | 24 | 1007.4 |
| 20260504215015 | 80 | 327 | 3.5 | 10.4 | 0.00 | 0.00 | 0.00 | 29 | 1007.4 |
| 20260504214533 | 80 | 47 | 3.5 | 10.4 | 0.00 | 0.00 | 0.00 | 25 | 1007.5 |
| 20260504214016 | 80 | 10 | 5.2 | 11.3 | 0.00 | 0.00 | 0.00 | 31 | 1007.5 |
| 20260504213516 | 80 | 331 | 3.5 | 11.3 | 0.00 | 0.00 | 0.00 | 27 | 1007.6 |
| 20260504213046 | 80 | 352 | 6.1 | 11.3 | 0.00 | 0.00 | 0.00 | 27 | 1007.6 |
| 20260504212520 | 80 | 311 | 7.0 | 11.3 | 0.00 | 0.00 | 0.00 | 29 | 1007.6 |
| 20260504212018 | 80 | 296 | 2.6 | 8.7 | 0.00 | 0.00 | 0.00 | 27 | 1007.5 |
| 20260504211536 | 80 | 360 | 4.3 | 9.6 | 0.00 | 0.00 | 0.00 | 25 | 1007.6 |
| 20260504211017 | 80 | 265 | 5.2 | 9.6 | 0.00 | 0.00 | 0.00 | 24 | 1007.6 |
| 20260504210517 | 80 | 272 | 0.9 | 7.8 | 0.00 | 0.00 | 0.00 | 28 | 1007.6 |
| 20260504210038 | 79 | 32 | 1.7 | 7.8 | 0.00 | 0.00 | 0.00 | 29 | 1007.6 |
| 20260504205517 | 79 | 350 | 2.6 | 12.2 | 0.00 | 0.00 | 0.00 | 28 | 1007.6 |
| 20260504205017 | 79 | 325 | 6.1 | 12.2 | 0.00 | 0.00 | 0.00 | 25 | 1007.7 |
| 20260504204543 | 79 | 281 | 6.1 | 11.3 | 0.00 | 0.00 | 0.00 | 30 | 1007.7 |
| 20260504204021 | 79 | 0 | 0.0 | 8.7 | 0.00 | 0.00 | 0.00 | 26 | 1007.8 |
| 20260504203514 | 79 | 346 | 2.6 | 9.6 | 0.00 | 0.00 | 0.00 | 28 | 1007.8 |
| 20260504203044 | 78 | 352 | 4.3 | 11.3 | 0.00 | 0.00 | 0.00 | 28 | 1007.8 |
| 20260504202516 | 78 | 334 | 5.2 | 11.3 | 0.00 | 0.00 | 0.00 | 25 | 1007.9 |
| 20260504202017 | 79 | 317 | 4.3 | 8.7 | 0.00 | 0.00 | 0.00 | 29 | 1007.8 |
| 20260504201535 | 78 | 31 | 1.7 | 7.8 | 0.00 | 0.00 | 0.00 | 28 | 1007.9 |
| 20260504201020 | 78 | 19 | 2.6 | 9.6 | 0.00 | 0.00 | 0.00 | 28 | 1007.9 |
| 20260504200514 | 78 | 350 | 2.6 | 9.6 | 0.00 | 0.00 | 0.00 | 26 | 1007.9 |
| 20260504200034 | 78 | 352 | 2.6 | 8.7 | 0.00 | 0.00 | 0.00 | 29 | 1008.0 |
| 20260504195516 | 78 | 360 | 0.9 | 6.1 | 0.00 | 0.00 | 0.00 | 30 | 1008.0 |
| 20260504195017 | 78 | 12 | 1.7 | 6.1 | 0.00 | 0.00 | 0.00 | 32 | 1007.9 |
| 20260504194535 | 77 | 223 | 1.7 | 9.6 | 0.00 | 0.00 | 0.00 | 30 | 1007.9 |
| 20260504194018 | 77 | 305 | 3.5 | 11.3 | 0.00 | 0.00 | 0.00 | 30 | 1008.0 |
| 20260504193518 | 77 | 333 | 8.7 | 11.3 | 0.00 | 0.00 | 0.00 | 33 | 1008.0 |
| 20260504193031 | 77 | 290 | 3.5 | 7.8 | 0.00 | 0.00 | 0.00 | 33 | 1008.0 |
| 20260504192516 | 77 | 319 | 4.3 | 7.8 | 0.00 | 0.00 | 0.00 | 33 | 1008.0 |
| 20260504192016 | 76 | 263 | 2.6 | 8.7 | 0.00 | 0.00 | 0.00 | 32 | 1008.0 |
| 20260504191537 | 76 | 298 | 2.6 | 8.7 | 0.00 | 0.00 | 0.00 | 31 | 1008.0 |
| 20260504191017 | 76 | 324 | 5.2 | 9.6 | 0.00 | 0.00 | 0.00 | 33 | 1008.0 |
| 20260504190516 | 76 | 331 | 3.5 | 9.6 | 0.00 | 0.00 | 0.00 | 30 | 1008.2 |
| 20260504190037 | 76 | 14 | 3.5 | 8.7 | 0.00 | 0.00 | 0.00 | 37 | 1008.1 |
| 20260504185514 | 76 | 348 | 4.3 | 9.6 | 0.00 | 0.00 | 0.00 | 38 | 1008.1 |
| 20260504185015 | 76 | 331 | 3.5 | 11.3 | 0.00 | 0.00 | 0.00 | 34 | 1008.2 |
| 20260504184530 | 75 | 333 | 7.8 | 11.3 | 0.00 | 0.00 | 0.00 | 37 | 1008.3 |
| 20260504184015 | 75 | 336 | 5.2 | 10.4 | 0.00 | 0.00 | 0.00 | 38 | 1008.3 |
| 20260504183517 | 75 | 336 | 7.0 | 10.4 | 0.00 | 0.00 | 0.00 | 37 | 1008.5 |
| 20260504183034 | 74 | 315 | 5.2 | 10.4 | 0.00 | 0.00 | 0.00 | 38 | 1008.5 |
| 20260504182516 | 74 | 317 | 5.2 | 9.6 | 0.00 | 0.00 | 0.00 | 39 | 1008.6 |
| 20260504182015 | 74 | 338 | 6.1 | 9.6 | 0.00 | 0.00 | 0.00 | 40 | 1008.6 |
| 20260504181542 | 74 | 360 | 5.2 | 11.3 | 0.00 | 0.00 | 0.00 | 39 | 1008.5 |
| 20260504181015 | 73 | 302 | 5.2 | 11.3 | 0.00 | 0.00 | 0.00 | 39 | 1008.5 |
| 20260504180515 | 72 | 304 | 2.6 | 7.8 | 0.00 | 0.00 | 0.00 | 39 | 1008.7 |
| 20260504180033 | 72 | 324 | 3.5 | 9.6 | 0.00 | 0.00 | 0.00 | 40 | 1008.8 |
| 20260504175515 | 71 | 324 | 5.2 | 9.6 | 0.00 | 0.00 | 0.00 | 42 | 1008.9 |
| 20260504175015 | 71 | 334 | 5.2 | 9.6 | 0.00 | 0.00 | 0.00 | 41 | 1008.8 |
| 20260504174530 | 70 | 352 | 3.5 | 8.7 | 0.00 | 0.00 | 0.00 | 45 | 1008.9 |
| 20260504174015 | 70 | 305 | 4.3 | 8.7 | 0.00 | 0.00 | 0.00 | 43 | 1009.0 |
| 20260504173515 | 70 | 330 | 3.5 | 7.8 | 0.00 | 0.00 | 0.00 | 43 | 1008.9 |
| 20260504173032 | 69 | 319 | 3.5 | 7.0 | 0.00 | 0.00 | 0.00 | 42 | 1009.1 |
| 20260504172514 | 69 | 349 | 3.5 | 7.0 | 0.00 | 0.00 | 0.00 | 43 | 1009.2 |
| 20260504172017 | 68 | 326 | 0.9 | 4.3 | 0.00 | 0.00 | 0.00 | 44 | 1009.2 |
| 20260504171535 | 68 | 319 | 1.7 | 5.2 | 0.00 | 0.00 | 0.00 | 46 | 1009.2 |
| 20260504171016 | 68 | 351 | 2.6 | 5.2 | 0.00 | 0.00 | 0.00 | 45 | 1009.2 |
| 20260504170517 | 67 | 341 | 2.6 | 7.8 | 0.00 | 0.00 | 0.00 | 44 | 1009.2 |
| 20260504151015 | 53 | 323 | 3.5 | 4.3 | 0.00 | 0.00 | 0.00 | 72 | 1010.0 |
| 20260504150513 | 53 | 330 | 2.6 | 4.3 | 0.00 | 0.00 | 0.00 | 74 | 1010.0 |
| 20260504141015 | 45 | 321 | 1.7 | 4.3 | 0.00 | 0.00 | 0.00 | 86 | 1009.9 |
| 20260504140512 | 44 | 336 | 2.6 | 4.3 | 0.00 | 0.00 | 0.00 | 87 | 1010.0 |
| 20260504130512 | 38 | 0 | 0.0 | 0.0 | 0.00 | 0.00 | 0.00 | 91 | 1009.8 |
| 20260504110516 | 41 | 0 | 0.0 | 0.9 | 0.00 | 0.00 | 0.00 | 89 | 1009.1 |